User: anonymous   Login
Location: Unspecified
(0.0000°N, 0.0000°E)
Time: 08:44:27
(UTC+02:00)
Language:

Iridium 39 - Orbit

View from above orbital plane
View from above orbital plane
View from above satellite
View from above satellite

Ground track
Ground track

The orbit data is extracted from the following two-line orbital elements,

1 25042U 97069D   15242.48065631  .00000177  00000-0  56080-4 0  9999
2 25042 086.3969 296.6868 0002186 094.9741 265.1705 14.34226365932187
Epoch (UTC): 30 August 2015 11:32:08
Eccentricity: 0.0002186
inclination: 86.3969°
perigee height: 776 km
apogee height: 779 km
right ascension of ascending node: 296.6868°
argument of perigee: 94.9741°
revolutions per day: 14.34226365
mean anomaly at epoch: 265.1705°
orbit number at epoch: 93218

The dashed part of the orbit path shows where the satellite is in the earth's shadow,  

DLR